Location: Heiligenberg
(48.5381°N, 7.3897°E)
Time: 21:26:30
(UTC+00:00)

Cosmos 1378 Rocket - Pass Details

Date: 26 May 2022
Orbit: 600 x 627 km, 82.5° (Epoch: 02 July)

Event Time Altitude Azimuth Distance (km) Brightness Sun altitude
Exits shadow 00:22:25 42° 223° (SW) 900 3.9 -19.3°
Maximum altitude 00:23:43 61° 282° (WNW) 712 3.8 -19.2°
Drops below altitude 10° 00:28:08 10° 3° (N) 2,012 7.4 -19.1°
Sets 00:30:25 0° 7° (N) 2,926 8.6 -19.0°
